Regional Weather Roundup
Issued by NWS Jackson, KY

Home | Current Version | Previous Version | Graphics & Text | Print | Product List | Glossary On
Versions: 1 2 3 4 5 6 7 8 9 10 11 12 13 14 15 16 17 18 19 20 21 22 23 24 25 26 27 28 29 30 31 32 33 34 35 36 37 38 39 40 41 42 43 44 45 46 47 48 49 50
942
ASUS43 KJKL 181010
RWRJKL

EAST KENTUCKY HOURLY WEATHER ROUNDUP
NATIONAL WEATHER SERVICE JACKSON KY
500 AM EST WED JAN 18 2017

NOTE: "FAIR" INDICATES FEW OR NO CLOUDS BELOW 12,000 FEET WITH
NO SIGNIFICANT WEATHER AND/OR OBSTRUCTIONS TO VISIBILITY.

* THESE REPORTS ARE NOT UNDER NWS QUALITY CONTROL AND MAY NOT
  REPORT WEATHER SUCH AS PRECIPITATION AND FOG.

KYZ079-080-083-085-087-088-110-112-115-119-120-181100
...EASTERN KENTUCKY...

CITY           SKY/WX    TMP DP  RH WIND       PRES   REMARKS
JACKSON        CLOUDY    45  40  82 VRB6      30.09R
LONDON         CLOUDY    45  40  82 NW8       30.11S
SOMERSET*      CLOUDY    43  41  93 N7        30.15R
MONTICELLO*    CLOUDY    45  41  86 W8G16     30.16R
WILLIAMSBURG*  CLOUDY    46  46 100 W6        30.12S
MIDDLESBORO*   CLOUDY    51  46  83 NW6       30.10R
HARLAN APT*    CLOUDY    50  43  76 SW7       30.09R
PIKE CO APT*   CLOUDY    47  45  91 W7        30.07R
BIG SANDY APT* CLOUDY    48  43  83 W13G20    30.07S
MOREHEAD APT*  CLOUDY    43  37  81 W7        30.13R
ASHLAND*       CLOUDY    45  39  81 W8        30.07R
$$

KYZ035-036-041-042-044-050-067-078-099-181100
...CENTRAL KENTUCKY...

CITY           SKY/WX    TMP DP  RH WIND       PRES   REMARKS
MT STERLING*   CLOUDY    41  39  93 W6        30.14R
FLEMING/MASON* CLOUDY    41  39  90 W7        30.12R
DANVILLE*      CLOUDY    41  37  87 W12       30.15R
LEXINGTON      CLOUDY    42  37  82 W13       30.13R
FRANKFORT      CLOUDY    43  37  79 W10       30.13R
LOUISVILLE     CLOUDY    43  36  76 W9        30.15R HAZE
LEBANON*       CLOUDY    41  37  87 W7        30.15S
GLASGOW*       CLOUDY    43  38  83 W6        30.17R
BOWLING GREEN  CLOUDY    45  38  76 NW6       30.18R
$$

KYZ091>093-OHZ055-061-077-WVZ005-015-034-035-042-181100
...SOUTHERN OHIO/WEST VIRGINIA...

CITY           SKY/WX    TMP DP  RH WIND       PRES   REMARKS
COVINGTON      DRIZZLE   40  38  93 W12       30.10R FOG     WCI  33
COLUMBUS       CLOUDY    41  37  86 W15       30.05R
DAYTON         CLOUDY    36  33  89 W14       30.09R WCI  27
WILMINGTON     CLOUDY    38  37  97 NW13      30.08R WCI  30
HUNTINGTON     CLOUDY    45  40  82 W6        30.07R
CHARLESTON     CLOUDY    48  40  73 NW15      30.05R
PINEVILLE*     CLOUDY    52  43  71 MISG      30.07R
BECKLEY        CLOUDY    47  41  80 NW12      30.01R
BLUEFIELD      MOCLDY    47  42  83 W13       30.00R
LOGAN CO APT*  CLOUDY    48  43  81 CALM      30.04S
$$

VAZ002-007-008-TNZ017-027-036-066-071-181100
...SOUTHWEST VIRGINIA/EAST TENNESSEE...

CITY           SKY/WX    TMP DP  RH WIND       PRES   REMARKS
WISE*          CLOUDY    48  41  76 W10G18    30.06R
JONESVILLE*      N/A     52  45  76 W12       30.09R
ABINGDON*      CLOUDY    55  48  77 W9G18     30.03R
BRISTOL        CLOUDY    54  46  74 W7        30.04R
MORRISTOWN*    PTSUNNY   54  50  87 NW7       30.06R
SEVIERVILLE*   CLOUDY    55  52  88 W5        30.08R
LAFOLLETTE*    CLOUDY    52  45  76 CALM      30.12S
OAK RIDGE      MOCLDY    53  45  74 W8        30.10R
CROSSVILLE     CLOUDY    46  43  89 W14       30.13R
NASHVILLE      CLOUDY    47  40  76 N8        30.18R
$$

...KEY TO REMARKS...
VSB - VISIBILITY IN MILES
WCI - WIND CHILL INDEX
HX  - HEAT INDEX

$$




USA.gov is the U.S. government's official web portal to all federal, state and local government web resources and services.